When you browse on this site, cookies collect data to enhance your experience and personalize the content and advertising you see.
Visit our Privacy Policy to learn more. By continuing to use the site, you agree to this use of cookies and data.
  • In Lithuania
  • List of Countries
  • For 7 days
  • Water Temperature
  • Satellite Maps
  • Weather Map
  • Weather Widgets
  • user-avatar
    Login

    Hourly Weather Trunovskoe

    Today, 23 February, Saturday

    Time Temperature Precipitation Wind Pressure Humidity
    00:00 +4°C° 0.1 mm 2 mps 747 mmHg 79%
    01:00 +4°C° 0 mm 2 mps 747 mmHg 79%
    02:00 +4°C° 0 mm 2 mps 748 mmHg 78%
    03:00 +4°C° 0 mm 2 mps 748 mmHg 78%
    04:00 +3°C° 0 mm 2 mps 748 mmHg 78%
    05:00 +3°C° 0 mm 2 mps 748 mmHg 77%
    06:00 +3°C° 0 mm 2 mps 749 mmHg 77%
    07:00 +2°C° 0 mm 3 mps 749 mmHg 75%
    08:00 +3°C° 0 mm 3 mps 749 mmHg 73%
    09:00 +3°C° 0 mm 4 mps 749 mmHg 70%
    10:00 +4°C° 0 mm 4 mps 750 mmHg 68%
    11:00 +5°C° 0 mm 4 mps 750 mmHg 65%
    12:00 +7°C° 0 mm 4 mps 750 mmHg 62%
    13:00 +8°C° 0.1 mm 3 mps 750 mmHg 63%
    14:00 +8°C° 0.1 mm 3 mps 750 mmHg 63%
    15:00 +8°C° 0.1 mm 2 mps 750 mmHg 63%
    16:00 +7°C° 0.2 mm 2 mps 750 mmHg 68%
    17:00 +7°C° 0.2 mm 2 mps 751 mmHg 73%
    18:00 +6°C° 0.2 mm 2 mps 751 mmHg 77%
    19:00 +7°C° 0.2 mm 1 mps 751 mmHg 79%
    20:00 +7°C° 0.2 mm 1 mps 752 mmHg 81%
    21:00 +6°C° 0.2 mm 1 mps 752 mmHg 83%
    22:00 +6°C° 0 mm 1 mps 752 mmHg 85%
    23:00 +4°C° 0 mm 2 mps 752 mmHg 86%

    Tomorrow, 24 February, Sunday

    Time Temperature Precipitation Wind Pressure Humidity
    00:00 +4°C° 0 mm 2 mps 752 mmHg 87%
    01:00 +3°C° 0 mm 2 mps 752 mmHg 88%
    02:00 +3°C° 0 mm 2 mps 752 mmHg 89%
    03:00 +1°C° 0 mm 3 mps 753 mmHg 90%
    04:00 +2°C° 0 mm 2 mps 753 mmHg 91%
    05:00 +1°C° 0 mm 2 mps 753 mmHg 91%
    06:00 +1°C° 0 mm 2 mps 753 mmHg 92%
    07:00 +1°C° 0.1 mm 2 mps 753 mmHg 90%
    08:00 +1°C° 0.1 mm 2 mps 753 mmHg 89%
    09:00 +1°C° 0.1 mm 2 mps 754 mmHg 88%
    10:00 +1°C° 0.2 mm 2 mps 754 mmHg 86%
    11:00 +1°C° 0.2 mm 2 mps 754 mmHg 85%
    12:00 0°C° 0.2 mm 3 mps 754 mmHg 83%
    13:00 +1°C° 0.2 mm 3 mps 754 mmHg 83%
    14:00 +1°C° 0.2 mm 3 mps 754 mmHg 82%
    15:00 +2°C° 0.2 mm 2 mps 754 mmHg 82%
    16:00 +1°C° 0 mm 3 mps 754 mmHg 82%
    17:00 0°C° 0 mm 3 mps 754 mmHg 83%
    18:00 0°C° 0 mm 3 mps 755 mmHg 84%
    19:00 0°C° 0 mm 3 mps 755 mmHg 85%
    20:00 -1°C° 0 mm 3 mps 755 mmHg 86%
    21:00 -1°C° 0 mm 2 mps 755 mmHg 87%
    22:00 -2°C° 0 mm 3 mps 755 mmHg 87%
    23:00 -2°C° 0 mm 3 mps 755 mmHg 87%

    Day after tomorrow, 25 February, Monday

    Time Temperature Precipitation Wind Pressure Humidity
    00:00 -4°C° 0 mm 3 mps 755 mmHg 87%
    01:00 -4°C° 0 mm 3 mps 755 mmHg 86%
    02:00 -4°C° 0 mm 3 mps 755 mmHg 85%
    03:00 -4°C° 0 mm 3 mps 755 mmHg 84%
    04:00 -5°C° 0 mm 3 mps 755 mmHg 84%
    05:00 -5°C° 0 mm 3 mps 755 mmHg 83%
    06:00 -5°C° 0 mm 3 mps 754 mmHg 83%
    07:00 -5°C° 0 mm 3 mps 754 mmHg 78%
    08:00 -4°C° 0 mm 4 mps 755 mmHg 74%
    09:00 -4°C° 0 mm 4 mps 755 mmHg 70%
    10:00 -4°C° 0 mm 5 mps 754 mmHg 61%
    11:00 -1°C° 0 mm 5 mps 753 mmHg 52%
    12:00 -1°C° 0 mm 6 mps 753 mmHg 44%
    13:00 -1°C° 0 mm 6 mps 752 mmHg 45%
    14:00 +1°C° 0 mm 6 mps 752 mmHg 47%
    15:00 +1°C° 0 mm 6 mps 751 mmHg 48%
    16:00 -1°C° 0 mm 6 mps 750 mmHg 54%
    17:00 0°C° 0 mm 5 mps 750 mmHg 60%
    18:00 -1°C° 0 mm 5 mps 750 mmHg 66%
    19:00 -1°C° 0 mm 5 mps 749 mmHg 68%
    20:00 -2°C° 0 mm 6 mps 749 mmHg 70%
    21:00 -2°C° 0 mm 7 mps 748 mmHg 72%
    22:00 -3°C° 0 mm 7 mps 748 mmHg 73%
    23:00 -3°C° 0 mm 7 mps 747 mmHg 74%

    26 February, Tuesday

    Time Temperature Precipitation Wind Pressure Humidity
    00:00 -3°C° 0 mm 7 mps 746 mmHg 75%
    01:00 -4°C° 0 mm 8 mps 746 mmHg 75%
    02:00 -4°C° 0 mm 9 mps 745 mmHg 76%
    03:00 -4°C° 0 mm 9 mps 744 mmHg 77%
    04:00 -4°C° 0.1 mm 10 mps 744 mmHg 77%
    05:00 -4°C° 0.1 mm 10 mps 743 mmHg 77%
    06:00 -3°C° 0.1 mm 11 mps 742 mmHg 77%
    07:00 -3°C° 0.4 mm 10 mps 742 mmHg 79%
    08:00 -3°C° 0.4 mm 10 mps 742 mmHg 80%
    09:00 -3°C° 0.4 mm 10 mps 742 mmHg 81%
    10:00 -3°C° 0.3 mm 10 mps 741 mmHg 77%
    11:00 -2°C° 0.3 mm 10 mps 741 mmHg 74%
    12:00 -1°C° 0.3 mm 9 mps 740 mmHg 70%
    13:00 -1°C° 0.1 mm 9 mps 740 mmHg 69%
    14:00 -1°C° 0.1 mm 9 mps 739 mmHg 67%
    15:00 -1°C° 0.1 mm 9 mps 739 mmHg 66%
    16:00 -1°C° 0.1 mm 8 mps 738 mmHg 69%
    17:00 -1°C° 0.1 mm 7 mps 738 mmHg 72%
    18:00 -2°C° 0.1 mm 6 mps 738 mmHg 76%
    19:00 -2°C° 0 mm 6 mps 738 mmHg 78%
    20:00 -3°C° 0 mm 6 mps 738 mmHg 80%
    21:00 -3°C° 0 mm 6 mps 737 mmHg 82%
    22:00 -3°C° 0 mm 6 mps 737 mmHg 82%
    23:00 -3°C° 0 mm 6 mps 736 mmHg 82%

    27 February, Wednesday

    Time Temperature Precipitation Wind Pressure Humidity
    00:00 -3°C° 0 mm 6 mps 736 mmHg 82%
    01:00 -2°C° 0 mm 5 mps 736 mmHg 84%
    02:00 -4°C° 0 mm 5 mps 735 mmHg 85%
    03:00 -3°C° 0 mm 4 mps 735 mmHg 87%
    04:00 -2°C° 0.1 mm 3 mps 734 mmHg 89%
    05:00 -2°C° 0.1 mm 2 mps 734 mmHg 91%
    06:00 -2°C° 0.1 mm 2 mps 734 mmHg 93%
    07:00 +1°C° 0.2 mm 1 mps 734 mmHg 92%
    08:00 +1°C° 0.2 mm 1 mps 734 mmHg 91%
    09:00 +2°C° 0.2 mm 1 mps 734 mmHg 90%
    10:00 +2°C° 0.3 mm 1 mps 734 mmHg 88%
    11:00 +3°C° 0.3 mm 1 mps 734 mmHg 85%
    12:00 +2°C° 0.3 mm 2 mps 734 mmHg 82%
    13:00 +4°C° 0.1 mm 1 mps 734 mmHg 80%
    14:00 +4°C° 0.1 mm 1 mps 734 mmHg 77%
    15:00 +4°C° 0.1 mm 1 mps 734 mmHg 74%
    16:00 +4°C° 0 mm 1 mps 735 mmHg 79%
    17:00 +2°C° 0 mm 2 mps 735 mmHg 83%
    18:00 0°C° 0 mm 3 mps 735 mmHg 88%
    19:00 0°C° 0 mm 3 mps 736 mmHg 88%
    20:00 0°C° 0 mm 3 mps 737 mmHg 88%
    21:00 0°C° 0 mm 3 mps 737 mmHg 89%
    22:00 -1°C° 0 mm 3 mps 738 mmHg 89%
    23:00 -1°C° 0 mm 3 mps 738 mmHg 90%

    28 February, Thursday

    Time Temperature Precipitation Wind Pressure Humidity
    00:00 -2°C° 0 mm 2 mps 738 mmHg 90%
    01:00 -3°C° 0 mm 2 mps 739 mmHg 92%
    02:00 -3°C° 0 mm 2 mps 739 mmHg 93%
    03:00 -3°C° 0 mm 2 mps 739 mmHg 94%
    04:00 -4°C° 0 mm 2 mps 740 mmHg 93%
    05:00 -4°C° 0 mm 2 mps 740 mmHg 92%
    06:00 -5°C° 0 mm 3 mps 740 mmHg 92%
    07:00 -4°C° 0 mm 4 mps 740 mmHg 88%
    08:00 -3°C° 0 mm 4 mps 741 mmHg 84%
    09:00 -2°C° 0 mm 5 mps 741 mmHg 81%
    10:00 -2°C° 0 mm 5 mps 740 mmHg 78%
    11:00 -2°C° 0 mm 6 mps 740 mmHg 75%
    12:00 -1°C° 0 mm 6 mps 740 mmHg 72%
    13:00 -1°C° 0 mm 7 mps 739 mmHg 71%
    14:00 -1°C° 0 mm 7 mps 739 mmHg 69%
    15:00 -1°C° 0 mm 7 mps 738 mmHg 68%
    16:00 -1°C° 0 mm 7 mps 738 mmHg 71%
    17:00 -2°C° 0 mm 7 mps 738 mmHg 74%
    18:00 -2°C° 0 mm 7 mps 738 mmHg 76%
    19:00 -2°C° 0 mm 8 mps 738 mmHg 77%
    20:00 -2°C° 0 mm 8 mps 738 mmHg 77%
    21:00 -3°C° 0 mm 9 mps 738 mmHg 77%
    22:00 -3°C° 0 mm 10 mps 737 mmHg 75%
    23:00 -3°C° 0 mm 10 mps 737 mmHg 74%
    Show more